Weather Roundup
Issued by NWS Chicago, IL

Home | Current Version | Previous Version | Text Only | Print | Product List | Glossary Off
Versions: 1 2 3 4 5 6 7 8 9 10 11 12 13 14 15 16 17 18 19 20 21 22 23 24 25 26 27 28 29 30 31 32 33 34 35 36 37 38 39 40 41 42 43 44 45 46 47 48 49 50

000
NZUS59 KLOT 161906
HRRLOT

CHICAGO AREA WEATHER ROUNDUP
NATIONAL WEATHER SERVICE CHICAGO/ROMEOVILLE IL
200 PM CDT WED APR 16 2014

NOTE: "FAIR" INDICATES FEW OR NO CLOUDS BELOW 12,000 FEET WITH NO
SIGNIFICANT WEATHER AND/OR OBSTRUCTIONS TO VISIBILITY.

* THESE STATIONS ARE NOT UNDER NWS QUALITY CONTROL. THEY ALSO MAY NOT
  REPORT WEATHER SUCH AS PRECIPITATION OR FOG.

ILZ005-006-012>014-019>023-162000-
NORTHEAST ILLINOIS

CITY           SKY/WX    TMP DP  RH WIND       PRES   REMARKS
OHARE          PTSUNNY   49  25  39 S23G30    30.21F
MIDWAY         CLOUDY    49  25  39 SE20G29   30.23F
AURORA         PTSUNNY   50  28  42 S24G36    30.19F
LANSING*       SUNNY     49  26  42 SE20      30.25F
JOLIET*        MOSUNNY   49  25  38 SE18G25   30.22F
WAUKEGAN       MOSUNNY   42  26  53 SE21G32   30.21F
DUPAGE AIRPORT MOSUNNY   50  27  40 S24G31    30.19F
WHEELING       MOSUNNY   49  27  42 S21G28    30.22F
KANKAKEE*      SUNNY     50  27  40 SE21G28   30.25F
MORRIS*        PTSUNNY   50  23  35 SE23G31   30.20F
NORTHERLY IS     N/A     47  31  54 SE20        N/A
$$

WIZ051-052-058>065-066-070>072-162000-
SOUTHEAST WISCONSIN

CITY           SKY/WX    TMP DP  RH WIND       PRES   REMARKS
MILWAUKEE      PTSUNNY   44  27  51 SE25G35   30.22F
KENOSHA*       MOSUNNY   45  28  51 SE24G35   30.21F
RACINE*        MOSUNNY   42  28  57 SE21G32   30.24F
BURLINGTON     MOSUNNY   47  27  44 S17G28    30.17F
WAUKESHA       MOSUNNY   45  28  53 SE21G29   30.19F
$$

INZ001>003-010>013-019-020-162000-
NORTHWEST INDIANA

CITY           SKY/WX    TMP DP  RH WIND       PRES   REMARKS
GARY*          PTSUNNY   48  23  37 S16G32    30.26F
MICHIGAN CITY* NOT AVBL
RENSSELAER*    NOT AVBL
VALPARAISO     SUNNY     47  19  33 SE20G26   30.27F
$$

LMZ740>746-162000-
SOUTHERN LAKE MICHIGAN

STATION/POSITION TIME  SKY/WX   TEMP WIND        PRES    VSBY
                                AIR  DIR/SP/G
                 (UTC)          (F)  (DEG/KT/KT) (MB)    (MI)
HARRISON CRIB    1900            43  160/ 17/ 24   N/A
BURNHAM HARBOR   1900            47  140/ 15/ 22   N/A
CALUMET HARBOR   1900            45  170/ 18/ 21 1024.9F
BURNS HARBOR     NOT AVBL
MICHIGAN CITY    1900            45  130/ 15/ 21   N/A
$$

ABBREVIATIONS USED IN REMARKS
   TC - TEMPERATURE IN CELSIUS
  WCI - WIND CHILL INDEX
   HX - HEAT INDEX
  VSB - VISIBILITY
$$


USA.gov is the U.S. government's official web portal to all federal, state and local government web resources and services.